Location: Chevoux
(46.3801°N, 4.9476°E)
Time: 16:43:30
(UTC+00:00)

Cosmos 1869 - Pass Details

Date: 28 January 2021
Orbit: 517 x 564 km, 82.5° (Epoch: 28 February)

Event Time Altitude Azimuth Distance (km) Brightness Sun altitude
Rises 18:24:58 0° 355° (N) 2,669 6.8 -18.3°
Reaches altitude 10° 18:27:10 10° 1° (N) 1,781 5.8 -18.7°
Enters shadow 18:30:18 44° 43° (NE) 745 3.6 -19.2°
